Regional Weather Roundup
Issued by NWS Cleveland, OH

Home | Current Version | Previous Version | Graphics & Text | Print | Product List | Glossary On
Versions: 1 2 3 4 5 6 7 8 9 10 11 12 13 14 15 16 17 18 19 20 21 22 23 24 25 26 27 28 29 30 31 32 33 34 35 36 37 38 39 40 41 42 43 44 45 46 47 48 49 50
000
ASUS41 KCLE 210900
RWRCLE
OHIO REGIONAL WEATHER ROUNDUP
NATIONAL WEATHER SERVICE WILMINGTON, OH
500 AM EDT TUE OCT 21 2014

NOTE: "FAIR" INDICATES FEW OR NO CLOUDS BELOW 12,000 FEET WITH NO
SIGNIFICANT WEATHER AND/OR OBSTRUCTIONS TO VISIBILITY.

OHZ001>008-015>018-024>027-034-035-043-044-211000-
   NORTHWEST OHIO

CITY           SKY/WX    TMP DP  RH WIND       PRES   REMARKS
DEFIANCE       CLOUDY    49  43  80 VRB3      29.93S
FINDLAY        CLOUDY    50  44  80 NW7       29.90S
TOLEDO EXPRESS CLOUDY    48  43  82 NW6       29.91R
TOLEDO METCALF CLOUDY    50  43  77 N9        29.91S
LIMA           CLOUDY    49  44  83 NW9       29.91S
$$

OHZ009>014-019>023-028>033-038-089-211000-
   NORTHEAST OHIO

CITY           SKY/WX    TMP DP  RH WIND       PRES   REMARKS
CLE-HOPKINS    LGT RAIN  51  49  92 NW12      29.87R FOG
CLE-LAKEFRONT  RAIN      54  50  86 N16       29.84R
CUY CO. ARPT   NOT AVBL
LORAIN-ELYRIA  CLOUDY    51  49  92 N10       29.86S
ASHTABULA      CLOUDY    51  50  96 CALM      29.83S FOG
AKRON-CANTON   CLOUDY    52  49  89 W7        29.84S FOG
WOOSTER        NOT AVBL
MANSFIELD      CLOUDY    50  49  96 NW7       29.87R FOG
YOUNGSTOWN     LGT RAIN  51  50  96 CALM      29.82S VSB 1
$$

OHZ042-051>053-060>062-070>072-077>081-211000-
  SOUTHWEST OHIO

CITY           SKY/WX    TMP DP  RH WIND       PRES   REMARKS
CINC-COVINGTON CLEAR     50  46  86 NW9       29.94R
CINC-LUNKEN    PTCLDY    53  48  83 NW9       29.94S
HAMILTON       CLOUDY    49  48  97 W5        29.95R
DAYTON         NOT AVBL
WRIGHT-PAT AFB NOT AVBL
DAYTON GENERAL CLOUDY    50  47  89 NW8       29.92R
WILMINGTON     CLOUDY    51  48  89 NW7       29.91S FOG
$$

OHZ036-037-039>041-045>050-054>059-063>069-073>076-082>088-211000-
  CENTRAL AND SOUTHEAST OHIO

CITY           SKY/WX    TMP DP  RH WIND       PRES   REMARKS
COLUMBUS       CLOUDY    50  48  93 NW3       29.88S FOG
OSU AIRPORT    CLOUDY    50  48  93 NW7       29.89S FOG
BOLTON FIELD   NOT AVBL
RICKENBACK AFB NOT AVBL
NEWARK         CLOUDY    51  49  92 W3        29.88S FOG
MARION         CLOUDY    50  48  93 W6        29.89R FOG
LANCASTER      CLOUDY    51  49  92 CALM      29.89S FOG
ZANESVILLE     CLOUDY    47  46  97 SW3       29.87S FOG
NEW PHILLY     CLOUDY    52  50  93 CALM      29.86S
$$


USA.gov is the U.S. government's official web portal to all federal, state and local government web resources and services.